Change the Weather History Date:

Tuesday, October 5, 2010

  Actual Average Record
Temperature  
Mean Temperature 51 °F 55 °F  
Max Temperature 68 °F 65 °F 85 °F (1946)
Min Temperature 33 °F 45 °F 29 °F (1965)
Degree Days  
Heating Degree Days 14 11  
Month to date heating degree days 74 50  
Since 1 July heating degree days 193 202  
Cooling Degree Days 0 0  
Month to date cooling degree days 0 4  
Year to date cooling degree days 964 696  
Moisture  
Dew Point 39 °F    
Average Humidity 63    
Maximum Humidity 92    
Minimum Humidity 34    
Precipitation  
Precipitation 0.00 in 0.12 in 1.72 in (2013)
Month to date precipitation 0.32 0.57  
Year to date precipitation 28.99 29.57  
Snow  
Snow 0.00 in 0.00 in 0.00 in (2002)
Month to date snowfall 0.0 0.0  
Since 1 July snowfall 0.0 0.0  
Since 1 September snowfall 0.0 0.0  
Snow Depth 0.00 in    
Sea Level Pressure  
Sea Level Pressure 30.32 in    
Wind  
Wind Speed 6 mph (WNW)    
Max Wind Speed 14 mph    
Max Gust Speed 18 mph    
Visibility 10 miles    
Events Fog    
T = Trace of Precipitation, MM = Missing Value Source: NWS Daily Summary

Daily Weather History Graph

Daily Weather History Graph

Search for Another Location

Airport or City:

Trip Planner

Search our weather history database for the weather conditions in past years. The results will help you decide how hot, cold, wet, or windy it might be!

Date:

Astronomy

Oct. 05, 2010 Rise Set
Actual Time 7:43 AM EDT 7:16 PM EDT
Civil Twilight 7:15 AM EDT 7:44 PM EDT
Nautical Twilight 6:42 AM EDT 8:17 PM EDT
Astronomical Twilight 6:09 AM EDT 8:50 PM EDT
Moon 5:02 AM EDT (10/5) 5:48 PM EDT (10/5)
Length of Visible Light 12h 29m
Length of Day
11h 32m
Waning Crescent, 7% of the Moon is Illuminated
Oct 5
Waning Crescent
Oct 7
New
Oct 14
First Quarter
Oct 22
Full
Oct 30
Last Quarter

Hourly Weather History & Observations

Time (EDT) Temp. Windchill Dew Point Humidity Pressure Visibility Wind Dir Wind Speed Gust Speed Precip Events Conditions
12:53 AM 43.0 °F - 37.0 °F 80% 30.34 in 10.0 mi Calm Calm - N/A   Clear
1:53 AM 41.0 °F 39.0 °F 37.0 °F 86% 30.34 in 10.0 mi WNW 3.5 mph - N/A   Clear
2:53 AM 42.1 °F 39.2 °F 37.9 °F 85% 30.33 in 10.0 mi WNW 4.6 mph - N/A   Clear
3:53 AM 39.9 °F 37.8 °F 37.0 °F 89% 30.34 in 10.0 mi West 3.5 mph - N/A   Clear
4:53 AM 39.0 °F - 35.1 °F 86% 30.34 in 10.0 mi Calm Calm - N/A   Clear
5:53 AM 39.9 °F 35.8 °F 36.0 °F 86% 30.34 in 10.0 mi WNW 5.8 mph - N/A   Clear
6:53 AM 35.1 °F - 33.1 °F 92% 30.38 in 10.0 mi Calm Calm - N/A   Partly Cloudy
7:53 AM 37.0 °F 34.5 °F 34.0 °F 89% 30.38 in 10.0 mi West 3.5 mph - N/A Fog Patches of Fog
8:53 AM 39.0 °F - 36.0 °F 89% 30.38 in 10.0 mi Calm Calm - N/A Fog Patches of Fog
9:53 AM 46.9 °F - 41.0 °F 80% 30.39 in 10.0 mi Calm Calm - N/A   Partly Cloudy
10:53 AM 55.0 °F - 44.1 °F 67% 30.38 in 10.0 mi WNW 4.6 mph - N/A   Partly Cloudy
11:53 AM 60.1 °F - 42.1 °F 51% 30.38 in 10.0 mi NW 9.2 mph - N/A   Partly Cloudy
12:53 PM 63.0 °F - 39.9 °F 43% 30.35 in 10.0 mi NW 6.9 mph - N/A   Partly Cloudy
1:53 PM 64.0 °F - 39.9 °F 41% 30.33 in 10.0 mi NW 6.9 mph - N/A   Partly Cloudy
2:53 PM 66.0 °F - 39.0 °F 37% 30.30 in 10.0 mi WNW 8.1 mph - N/A   Partly Cloudy
3:53 PM 66.9 °F - 37.9 °F 34% 30.30 in 10.0 mi WNW 10.4 mph 16.1 mph N/A   Partly Cloudy
4:53 PM 64.9 °F - 37.9 °F 37% 30.28 in 10.0 mi WNW 11.5 mph - N/A   Partly Cloudy
5:53 PM 64.9 °F - 43.0 °F 45% 30.27 in 10.0 mi West 10.4 mph - N/A   Partly Cloudy
6:53 PM 61.0 °F - 39.9 °F 46% 30.26 in 10.0 mi West 12.7 mph - N/A   Partly Cloudy
7:53 PM 57.0 °F - 39.0 °F 51% 30.26 in 10.0 mi West 9.2 mph - N/A   Partly Cloudy
8:53 PM 54.0 °F - 37.9 °F 55% 30.26 in 10.0 mi WNW 5.8 mph - N/A   Partly Cloudy
9:53 PM 52.0 °F - 39.0 °F 61% 30.27 in 10.0 mi West 5.8 mph - N/A   Clear
10:53 PM 50.0 °F - 39.9 °F 68% 30.26 in 10.0 mi West 5.8 mph - N/A   Clear
11:53 PM 50.0 °F - 41.0 °F 71% 30.25 in 10.0 mi WNW 6.9 mph - N/A   Clear